Voltar ao catálogo

COSMOS 2251 DEB

AtivoLEO
NORAD 35717·DEBRIS·🇷🇺 Russia

Lançado Jun 16, 1993 de Plesetsk Cosmodrome

Loading…

Próximas Passagens (próximas 24 horas)

TLE

EnvelhecendoSource: Space-Track

Época: Sep 11, 2026, 04:46 UTC

1 35717U 93036AQN 26254.19866154  .00002038  00000-0  63098-3 0  9995
2 35717  74.1585  78.2170 0075138 220.2374 139.3207 14.40231587780201

Acompanhe COSMOS 2251 DEB em tempo real com AllMySat

Download on the App Store